Location: Newark
(48.5156°N, 1.8989°W)
Time: 14:48:58
(UTC+00:00)

Vanguard 2 - All Passes

Search period start: 13 November 2019 00:00
Search period end: 23 November 2019 00:00
Orbit: 554 x 2937 km, 32.9° (Epoch: 12 November)

Date Brightness Start Highest point End Pass type
(mag) Time Alt. Az. Time Alt. Az. Time Alt. Az.
13 Nov - 11:02:56 10° S 11:03:52 10° S 11:04:46 10° SSE daylight
14 Nov - 11:19:29 10° SSW 11:21:32 12° S 11:23:21 10° SSE daylight
15 Nov - 09:29:25 10° S 09:31:34 11° S 09:33:29 10° SSE daylight
15 Nov - 11:36:46 10° SSW 11:39:10 13° S 11:41:16 10° SSE daylight
16 Nov - 09:45:41 10° SSW 09:49:16 14° S 09:52:14 10° SE daylight
16 Nov - 11:54:25 10° SW 11:56:46 13° S 11:58:51 10° SSE daylight
17 Nov - 07:56:10 10° S 07:58:55 12° SSE 08:01:19 10° SE daylight
17 Nov - 10:02:38 10° SW 10:06:57 17° S 10:10:23 10° SE daylight
17 Nov - 12:12:25 10° SW 12:14:20 12° SSW 12:16:05 10° S daylight
18 Nov - 08:11:41 10° SSW 08:16:39 15° SSE 08:20:35 10° SE daylight
18 Nov - 10:19:57 10° SW 10:24:38 18° S 10:28:14 10° SE daylight
18 Nov - 12:31:19 10° SSW 12:31:51 10° SSW 12:32:22 10° SSW daylight
19 Nov - 06:24:32 10° SSE 06:25:48 10° SSE 06:27:02 10° SSE visible
19 Nov - 08:28:13 10° SSW 08:34:22 19° S 08:39:01 10° SE daylight
19 Nov - 10:37:31 10° SW 10:42:15 18° S 10:45:55 10° SE daylight
20 Nov - 06:37:58 10° S 06:43:33 15° SSE 06:48:06 10° SE visible
20 Nov - 08:45:12 10° SW 08:52:06 22° S 08:57:05 10° SE daylight
20 Nov - 10:55:17 10° SW 10:59:51 18° SSW 11:03:23 10° SSE daylight
21 Nov - 06:53:45 10° SSW 07:01:17 19° SSE 07:07:00 10° ESE visible
21 Nov - 09:02:29 10° SW 09:09:48 24° S 09:14:57 10° SE daylight
21 Nov - 11:13:15 10° WSW 11:17:22 16° SSW 11:20:40 10° SSE daylight
22 Nov - 05:05:38 10° S 05:09:59 12° SSE 05:13:50 10° SE visible
22 Nov - 07:10:15 10° SSW 07:19:01 23° SSE 07:25:20 10° ESE daylight
22 Nov - 09:20:00 10° SW 09:27:28 25° S 09:32:40 10° SE daylight
22 Nov - 11:31:32 10° SW 11:34:50 14° SSW 11:37:34 10° S daylight
